Time,TemperatureF,DewpointF,PressureIn,WindDirection,WindDirectionDegrees,WindSpeedMPH,WindSpeedGustMPH,Humidity,HourlyPrecipIn,Conditions,Clouds,dailyrainin,SolarRadiationWatts/m^2,SoftwareType,DateUTC
2013-06-13 00:01:00,71.0,66.0,-100.00,WSW,254,1.0,2.0,84,0.00,,,0.28,0.000000,,2013-06-13 04:01:00,
2013-06-13 00:12:00,71.0,66.0,-100.00,WSW,254,1.0,2.0,84,0.00,,,0.28,0.000000,,2013-06-13 04:12:00,
2013-06-13 00:43:00,70.0,67.0,-100.00,SSW,206,3.0,7.0,89,0.00,,,0.28,0.000000,,2013-06-13 04:43:00,
2013-06-13 00:54:00,70.0,67.0,-100.00,SSW,206,3.0,7.0,89,0.00,,,0.28,0.000000,,2013-06-13 04:54:00,
2013-06-13 01:02:00,70.0,67.0,-100.00,SSW,206,3.0,7.0,89,0.00,,,0.28,0.000000,,2013-06-13 05:02:00,
2013-06-13 01:12:00,70.0,67.0,-100.00,SSW,206,3.0,7.0,89,0.00,,,0.28,0.000000,,2013-06-13 05:12:00,
2013-06-13 01:43:00,71.0,69.0,-100.00,South,171,3.0,8.0,94,0.00,,,0.28,0.000000,,2013-06-13 05:43:00,
2013-06-13 01:53:00,71.0,69.0,-100.00,South,171,3.0,8.0,94,0.00,,,0.28,0.000000,,2013-06-13 05:53:00,
2013-06-13 02:02:00,71.0,69.0,-100.00,South,171,3.0,8.0,94,0.00,,,0.28,0.000000,,2013-06-13 06:02:00,
2013-06-13 02:11:00,71.0,69.0,-100.00,South,171,3.0,8.0,94,0.00,,,0.28,0.000000,,2013-06-13 06:11:00,
2013-06-13 02:44:00,71.0,68.0,-100.00,SW,222,4.0,9.0,91,0.00,,,0.28,0.000000,,2013-06-13 06:44:00,
2013-06-13 02:52:00,71.0,68.0,-100.00,SW,222,4.0,9.0,91,0.00,,,0.28,0.000000,,2013-06-13 06:52:00,
2013-06-13 03:01:00,71.0,68.0,-100.00,SW,222,4.0,9.0,91,0.00,,,0.28,0.000000,,2013-06-13 07:01:00,
2013-06-13 03:12:00,71.0,68.0,-100.00,SW,222,4.0,9.0,91,0.00,,,0.28,0.000000,,2013-06-13 07:12:00,
2013-06-13 03:42:00,71.0,67.0,-100.00,SSW,211,4.0,13.0,87,0.00,,,0.28,0.000000,,2013-06-13 07:42:00,
2013-06-13 03:52:00,71.0,67.0,-100.00,SSW,211,4.0,13.0,87,0.00,,,0.28,0.000000,,2013-06-13 07:52:00,
2013-06-13 04:01:00,71.0,67.0,-100.00,SSW,211,4.0,13.0,87,0.00,,,0.28,0.000000,,2013-06-13 08:01:00,
2013-06-13 04:11:00,71.0,67.0,-100.00,SSW,211,4.0,13.0,87,0.00,,,0.28,0.000000,,2013-06-13 08:11:00,
2013-06-13 04:43:00,71.0,66.0,-100.00,SSW,197,5.0,14.0,84,0.00,,,0.28,0.000000,,2013-06-13 08:43:00,
2013-06-13 04:52:00,71.0,66.0,-100.00,SSW,197,5.0,14.0,84,0.00,,,0.28,0.000000,,2013-06-13 08:52:00,
2013-06-13 05:02:00,71.0,66.0,-100.00,SSW,197,5.0,14.0,84,0.00,,,0.28,0.000000,,2013-06-13 09:02:00,
2013-06-13 05:12:00,71.0,66.0,-100.00,SSW,197,5.0,14.0,84,0.00,,,0.28,0.000000,,2013-06-13 09:12:00,
2013-06-13 05:42:00,70.0,65.0,-100.00,SW,227,6.0,13.0,85,0.00,,,0.28,0.000000,,2013-06-13 09:42:00,
2013-06-13 05:52:00,70.0,65.0,-100.00,SW,227,6.0,13.0,85,0.00,,,0.28,0.000000,,2013-06-13 09:52:00,
2013-06-13 06:01:00,70.0,65.0,-100.00,SW,227,6.0,13.0,85,0.00,,,0.28,0.000000,,2013-06-13 10:01:00,
2013-06-13 06:12:00,70.0,65.0,-100.00,SW,227,6.0,13.0,85,0.00,,,0.28,0.000000,,2013-06-13 10:12:00,
2013-06-13 06:43:00,70.0,65.0,-100.00,SW,216,5.0,17.0,85,0.00,,,0.28,1.000000,,2013-06-13 10:43:00,
2013-06-13 06:53:00,70.0,65.0,-100.00,SW,216,5.0,17.0,85,0.00,,,0.28,1.000000,,2013-06-13 10:53:00,
2013-06-13 07:02:00,70.0,65.0,-100.00,SW,216,5.0,17.0,85,0.00,,,0.28,1.000000,,2013-06-13 11:02:00,
2013-06-13 07:12:00,70.0,65.0,-100.00,SW,216,5.0,17.0,85,0.00,,,0.28,1.000000,,2013-06-13 11:12:00,
2013-06-13 07:42:00,72.0,67.0,-100.00,SW,221,6.0,14.0,83,0.00,,,0.28,48.000000,,2013-06-13 11:42:00,
2013-06-13 07:52:00,72.0,67.0,-100.00,SW,221,6.0,14.0,83,0.00,,,0.28,48.000000,,2013-06-13 11:52:00,
2013-06-13 08:01:00,72.0,67.0,-100.00,SW,221,6.0,14.0,83,0.00,,,0.28,48.000000,,2013-06-13 12:01:00,
2013-06-13 08:12:00,72.0,67.0,-100.00,SW,221,6.0,14.0,83,0.00,,,0.28,48.000000,,2013-06-13 12:12:00,
2013-06-13 08:43:00,73.0,66.0,-100.00,SSW,210,6.0,22.0,79,0.00,,,0.28,141.000000,,2013-06-13 12:43:00,
2013-06-13 08:52:00,73.0,66.0,-100.00,SSW,210,6.0,22.0,79,0.00,,,0.28,141.000000,,2013-06-13 12:52:00,
2013-06-13 09:02:00,73.0,66.0,-100.00,SSW,210,6.0,22.0,79,0.00,,,0.28,141.000000,,2013-06-13 13:02:00,
2013-06-13 09:11:00,73.0,66.0,-100.00,SSW,210,6.0,22.0,79,0.00,,,0.28,141.000000,,2013-06-13 13:11:00,
2013-06-13 09:43:00,75.0,67.0,-100.00,WSW,241,6.0,18.0,75,0.00,,,0.00,307.000000,,2013-06-13 13:43:00,
2013-06-13 09:53:00,75.0,67.0,-100.00,WSW,241,6.0,18.0,75,0.00,,,0.00,307.000000,,2013-06-13 13:53:00,
2013-06-13 10:02:00,75.0,67.0,-100.00,WSW,241,6.0,18.0,75,0.00,,,0.00,307.000000,,2013-06-13 14:02:00,
2013-06-13 10:11:00,75.0,67.0,-100.00,WSW,241,6.0,18.0,75,0.00,,,0.00,307.000000,,2013-06-13 14:11:00,
2013-06-13 10:43:00,75.0,66.0,-100.00,SW,218,7.0,17.0,73,0.00,,,0.00,321.000000,,2013-06-13 14:43:00,
2013-06-13 10:53:00,75.0,66.0,-100.00,SW,218,7.0,17.0,73,0.00,,,0.00,321.000000,,2013-06-13 14:53:00,
2013-06-13 11:02:00,75.0,66.0,-100.00,SW,218,7.0,17.0,73,0.00,,,0.00,321.000000,,2013-06-13 15:02:00,
2013-06-13 11:12:00,75.0,66.0,-100.00,SW,218,7.0,17.0,73,0.00,,,0.00,321.000000,,2013-06-13 15:12:00,
2013-06-13 11:53:00,76.0,68.0,-100.00,WSW,243,7.0,16.0,77,0.00,,,0.00,342.000000,,2013-06-13 15:53:00,
2013-06-13 12:02:00,76.0,68.0,-100.00,WSW,243,7.0,16.0,77,0.00,,,0.00,342.000000,,2013-06-13 16:02:00,
2013-06-13 12:12:00,76.0,68.0,-100.00,WSW,243,7.0,16.0,77,0.00,,,0.00,342.000000,,2013-06-13 16:12:00,
2013-06-13 12:43:00,74.0,66.0,-100.00,WSW,255,5.0,24.0,77,0.00,,,0.00,283.000000,,2013-06-13 16:43:00,
2013-06-13 12:54:00,74.0,66.0,-100.00,WSW,255,5.0,24.0,77,0.00,,,0.00,283.000000,,2013-06-13 16:54:00,
2013-06-13 13:02:00,74.0,66.0,-100.00,WSW,255,5.0,24.0,77,0.00,,,0.00,283.000000,,2013-06-13 17:02:00,
2013-06-13 13:12:00,74.0,66.0,-100.00,WSW,255,5.0,24.0,77,0.00,,,0.00,283.000000,,2013-06-13 17:12:00,
2013-06-13 13:43:00,70.0,66.0,-100.00,North,4,3.0,14.0,88,0.05,,,0.05,159.000000,,2013-06-13 17:43:00,
2013-06-13 13:53:00,70.0,66.0,-100.00,North,4,3.0,14.0,88,0.05,,,0.05,159.000000,,2013-06-13 17:53:00,
2013-06-13 14:02:00,70.0,66.0,-100.00,North,4,3.0,14.0,88,0.05,,,0.05,159.000000,,2013-06-13 18:02:00,
2013-06-13 14:11:00,70.0,66.0,-100.00,North,4,3.0,14.0,88,0.05,,,0.05,159.000000,,2013-06-13 18:11:00,
2013-06-13 14:43:00,66.0,65.0,-100.00,South,189,4.0,9.0,97,0.13,,,0.18,24.000000,,2013-06-13 18:43:00,
2013-06-13 14:52:00,66.0,65.0,-100.00,South,189,4.0,9.0,97,0.13,,,0.18,24.000000,,2013-06-13 18:52:00,
2013-06-13 15:02:00,66.0,65.0,-100.00,South,189,4.0,9.0,97,0.13,,,0.18,24.000000,,2013-06-13 19:02:00,
2013-06-13 15:11:00,66.0,65.0,-100.00,South,189,4.0,9.0,97,0.13,,,0.18,24.000000,,2013-06-13 19:11:00,
2013-06-13 15:43:00,65.0,64.0,-100.00,WSW,252,5.0,22.0,98,0.49,,,0.67,17.000000,,2013-06-13 19:43:00,
2013-06-13 15:53:00,65.0,64.0,-100.00,WSW,252,5.0,22.0,98,0.49,,,0.67,17.000000,,2013-06-13 19:53:00,
2013-06-13 16:02:00,65.0,64.0,-100.00,WSW,252,5.0,22.0,98,0.49,,,0.67,17.000000,,2013-06-13 20:02:00,
2013-06-13 16:11:00,65.0,64.0,-100.00,WSW,252,5.0,22.0,98,0.49,,,0.67,17.000000,,2013-06-13 20:11:00,
2013-06-13 16:44:00,67.0,66.0,-100.00,NNW,336,4.0,16.0,96,0.11,,,0.78,152.000000,,2013-06-13 20:44:00,
2013-06-13 16:53:00,67.0,66.0,-100.00,NNW,336,4.0,16.0,96,0.11,,,0.78,152.000000,,2013-06-13 20:53:00,
2013-06-13 17:02:00,67.0,66.0,-100.00,NNW,336,4.0,16.0,96,0.11,,,0.78,152.000000,,2013-06-13 21:02:00,
2013-06-13 17:11:00,67.0,66.0,-100.00,NNW,336,4.0,16.0,96,0.11,,,0.78,152.000000,,2013-06-13 21:11:00,
2013-06-13 17:43:00,68.0,64.0,-100.00,NW,325,7.0,17.0,88,0.00,,,0.78,318.000000,,2013-06-13 21:43:00,
2013-06-13 17:52:00,68.0,64.0,-100.00,NW,325,7.0,17.0,88,0.00,,,0.78,318.000000,,2013-06-13 21:52:00,
2013-06-13 18:02:00,68.0,64.0,-100.00,NW,325,7.0,17.0,88,0.00,,,0.78,318.000000,,2013-06-13 22:02:00,
2013-06-13 18:11:00,68.0,64.0,-100.00,NW,325,7.0,17.0,88,0.00,,,0.78,318.000000,,2013-06-13 22:11:00,
2013-06-13 18:43:00,66.0,60.0,-100.00,North,359,4.0,15.0,81,0.00,,,0.78,277.000000,,2013-06-13 22:43:00,
2013-06-13 18:52:00,66.0,60.0,-100.00,North,359,4.0,15.0,81,0.00,,,0.78,277.000000,,2013-06-13 22:52:00,
2013-06-13 19:02:00,66.0,60.0,-100.00,North,359,4.0,15.0,81,0.00,,,0.78,277.000000,,2013-06-13 23:02:00,
2013-06-13 19:11:00,66.0,60.0,-100.00,North,359,4.0,15.0,81,0.00,,,0.78,277.000000,,2013-06-13 23:11:00,
2013-06-13 19:43:00,65.0,61.0,-100.00,North,349,5.0,11.0,87,0.00,,,0.78,63.000000,,2013-06-13 23:43:00,
2013-06-13 19:52:00,65.0,61.0,-100.00,North,349,5.0,11.0,87,0.00,,,0.78,63.000000,,2013-06-13 23:52:00,
2013-06-13 20:01:00,65.0,61.0,-100.00,North,349,5.0,11.0,87,0.00,,,0.78,63.000000,,2013-06-14 00:01:00,
2013-06-13 20:12:00,65.0,61.0,-100.00,North,349,5.0,11.0,87,0.00,,,0.78,63.000000,,2013-06-14 00:12:00,
2013-06-13 20:43:00,63.0,59.0,-100.00,NW,315,6.0,15.0,87,0.00,,,0.78,34.000000,,2013-06-14 00:43:00,
2013-06-13 20:53:00,63.0,59.0,-100.00,NW,315,6.0,15.0,87,0.00,,,0.78,34.000000,,2013-06-14 00:53:00,
2013-06-13 21:01:00,63.0,59.0,-100.00,NW,315,6.0,15.0,87,0.00,,,0.78,34.000000,,2013-06-14 01:01:00,
2013-06-13 21:11:00,63.0,59.0,-100.00,NW,315,6.0,15.0,87,0.00,,,0.78,34.000000,,2013-06-14 01:11:00,
2013-06-13 21:33:00,60.0,57.0,-100.00,NW,309,7.0,17.0,89,0.00,,,0.78,2.000000,,2013-06-14 01:33:00,
2013-06-13 21:43:00,60.0,57.0,-100.00,NW,309,7.0,17.0,89,0.00,,,0.78,2.000000,,2013-06-14 01:43:00,
2013-06-13 21:53:00,60.0,57.0,-100.00,NW,309,7.0,17.0,89,0.00,,,0.78,2.000000,,2013-06-14 01:53:00,
2013-06-13 22:02:00,60.0,57.0,-100.00,NW,309,7.0,17.0,89,0.00,,,0.78,2.000000,,2013-06-14 02:02:00,
2013-06-13 22:11:00,60.0,57.0,-100.00,NW,309,7.0,17.0,89,0.00,,,0.78,2.000000,,2013-06-14 02:11:00,
2013-06-13 22:43:00,58.0,55.0,-100.00,WNW,303,3.0,13.0,89,0.00,,,0.78,0.000000,,2013-06-14 02:43:00,
2013-06-13 22:53:00,58.0,55.0,-100.00,WNW,303,3.0,13.0,89,0.00,,,0.78,0.000000,,2013-06-14 02:53:00,
2013-06-13 23:02:00,58.0,55.0,-100.00,WNW,303,3.0,13.0,89,0.00,,,0.78,0.000000,,2013-06-14 03:02:00,
2013-06-13 23:12:00,58.0,55.0,-100.00,WNW,303,3.0,13.0,89,0.00,,,0.78,0.000000,,2013-06-14 03:12:00,
2013-06-13 23:43:00,57.0,55.0,-100.00,North,2,3.0,9.0,93,0.00,,,0.78,0.000000,,2013-06-14 03:43:00,
2013-06-13 23:53:00,57.0,55.0,-100.00,North,2,3.0,9.0,93,0.00,,,0.78,0.000000,,2013-06-14 03:53:00,